Theta_e
312 311 311 311 312 312 311 313 312 311 313 315 315 314 314 314 314 315 314 313 314 315 313 315 312 313 315 313 315 315 315 316 316 316 317 316 316 315 314 316 316 316 317
312 312 312 311 312 312 311 311 311 312 313 314 315 315 315 314 314 314 314 313 315 315 314 314 310 311 315 314 316 316 315 317 317 317 317 316 316 317 317 316 315 316 315
312 312 312 312 312 312 311 311 312 314 314 315 315 314 314 314 315 314 313 314 315 315 313 313 312 311 314 315 316 316 317 316 316 315 316 317 317 316 318 318 318 318 320
313 312 312 312 312 312 310 310 312 311 314 314 314 314 314 313 314 314 314 313 313 315 315 313 314 312 312 315 316 315 314 314 315 316 315 315 314 316 317 318 319 319 318
309 310 312 312 310 309 308 309 312 313 314 314 312 312 313 313 314 314 314 314 314 315 314 314 313 314 312 314 315 314 314 314 315 317 314 314 314 314 318 319 318 316 317
308 309 309 310 308 307 307 310 311 313 314 313 314 314 312 313 315 315 315 314 312 313 313 314 313 315 314 315 315 315 315 316 316 315 314 318 319 319 318 317 317 317 315
307 306 307 308 307 308 307 311 312 311 311 315 314 315 314 314 314 314 313 313 312 313 315 314 314 314 314 313 315 316 317 317 316 316 317 317 316 316 316 316 310 305 305
306 305 304 306 307 307 307 309 312 311 311 314 313 314 314 314 314 315 314 313 311 312 314 314 314 310 313 315 316 315 317 317 316 316 317 316 315 315 312 309 309 310 311
303 303 305 306 306 306 308 309 311 311 311 312 313 313 315 314 315 313 313 311 311 310 313 314 313 315 312 313 315 315 311 314 318 317 317 317 317 317 317 316 314 315 316
303 303 303 306 306 305 306 307 310 312 311 312 313 315 315 313 315 313 313 314 309 310 314 314 314 313 312 310 314 316 315 314 311 316 317 318 318 318 317 316 317 317 317
304 304 304 305 304 304 305 306 308 310 311 310 311 313 315 315 315 314 313 313 310 313 313 313 312 312 310 310 313 313 315 314 313 311 310 318 318 318 318 319 317 317 316
303 304 303 303 303 304 304 305 307 310 309 309 311 312 313 315 315 315 314 312 309 313 313 313 313 313 312 308 309 314 314 313 310 312 314 313 307 314 315 317 316 315 315
304 304 304 303 301 303 304 305 307 309 308 309 310 312 312 314 314 314 314 313 309 310 314 314 315 315 313 311 309 309 308 307 308 310 312 313 314 312 307 312 314 310 308
304 302 304 302 301 303 303 305 307 308 309 308 308 309 314 315 314 315 314 314 310 310 311 314 315 314 313 312 310 309 308 308 310 313 314 313 313 314 313 314 314 314 311
303 302 303 302 301 302 303 305 307 307 308 309 307 309 310 315 313 315 315 315 314 311 311 313 313 313 312 312 309 306 306 308 310 313 313 313 314 313 313 313 313 314 311
302 301 302 303 301 301 302 305 307 307 306 309 308 308 309 313 313 316 315 315 315 313 312 312 314 313 312 312 310 312 306 307 307 311 312 313 314 314 313 313 313 313 313
304 301 301 302 301 301 301 304 305 307 307 307 308 307 307 311 314 315 315 314 314 314 313 309 309 312 314 315 315 315 315 314 311 310 311 312 313 313 313 313 314 314 313
304 301 301 301 301 301 301 301 302 305 306 307 307 308 306 307 313 313 313 313 314 314 314 311 311 313 314 314 315 316 316 315 315 312 311 311 311 311 312 313 312 312 313
301 302 302 302 302 301 301 301 301 303 305 306 306 306 305 305 309 313 314 313 313 314 315 314 313 315 314 313 315 315 315 314 314 315 313 311 310 310 310 310 311 311 311
302 302 303 303 302 302 301 301 300 302 304 304 304 305 305 306 309 311 314 314 314 314 314 314 314 314 313 312 314 315 315 315 313 313 312 312 312 311 311 310 310 310 310
305 303 303 303 302 302 302 301 301 301 301 303 303 303 304 305 308 311 312 313 314 313 313 314 315 315 315 314 313 313 314 314 314 314 313 313 313 312 310 311 311 311 311
304 304 304 303 303 302 302 302 302 302 303 303 303 302 303 304 306 308 310 312 313 313 314 314 314 315 315 315 315 314 314 314 314 314 314 314 314 313 312 312 311 311 313
306 305 305 304 303 302 302 303 303 303 303 303 304 304 304 304 303 304 307 310 311 311 312 312 313 314 314 314 315 314 315 315 315 315 314 314 314 313 313 312 313 313 313
307 304 305 305 304 304 303 303 303 304 303 303 303 304 305 305 305 305 304 304 308 310 310 311 311 312 312 313 315 314 313 313 314 315 315 315 314 314 313 313 313 313 313
305 304 303 305 305 303 303 304 305 305 304 304 304 304 304 305 305 305 305 306 306 304 306 308 307 309 310 310 312 313 314 314 314 314 314 314 314 314 314 314 314 314 313
306 305 304 304 305 306 305 306 306 306 305 305 305 304 304 304 305 305 305 305 306 307 307 306 305 308 308 308 309 310 310 311 312 313 313 314 313 313 313 314 313 313 314
Wind_Speed
14 16 14 19 16 21 21 18 23 25 23 21 20 21 18 18 15 15 11 10 10 7 7 8 11 12 10 9 10 7 8 11 17 16 11 7 5 10 13 13 12 12 19
14 12 20 19 16 19 21 21 26 25 23 23 22 20 18 17 15 14 10 11 9 7 6 6 10 10 8 8 7 6 7 9 11 10 7 7 6 9 10 10 12 9 16
10 18 16 15 17 19 22 24 22 19 13 15 20 18 17 15 13 12 9 10 7 7 5 3 8 9 7 8 7 7 5 5 6 10 10 9 11 11 13 11 13 16 18
15 18 19 17 17 17 22 25 21 22 12 15 16 18 17 17 13 12 11 12 9 10 5 2 5 8 8 8 5 4 4 6 4 1 14 17 9 11 13 19 21 19 20
21 20 14 14 17 22 25 24 22 22 13 11 13 16 21 20 13 12 12 11 10 10 7 2 3 6 8 6 5 8 10 15 10 14 19 16 12 16 16 22 21 21 22
20 14 9 10 16 20 25 19 18 13 9 5 10 9 17 19 16 15 13 10 7 7 13 4 1 3 5 7 7 6 4 12 17 27 25 22 29 28 24 25 25 23 20
19 17 15 15 17 18 20 18 15 16 14 9 5 4 9 19 13 16 13 11 5 7 4 4 2 3 3 4 4 7 5 4 7 15 22 24 25 24 23 22 19 19 18
19 21 20 15 15 18 20 17 16 13 15 10 5 6 11 13 13 16 16 13 8 8 6 5 4 3 3 2 3 8 9 7 10 13 12 15 16 17 16 18 19 16 13
20 18 20 19 14 16 18 17 17 14 12 8 11 8 9 12 12 15 15 15 13 11 6 6 8 4 1 1 2 4 6 9 10 10 12 10 11 10 10 13 14 12 11
20 18 17 16 15 14 16 17 18 13 8 8 7 5 9 13 14 17 17 13 12 14 9 8 6 3 3 3 2 4 5 7 7 7 8 9 9 9 12 8 11 11 10
18 16 15 14 17 17 14 15 15 11 6 8 8 6 5 14 17 19 16 13 12 14 11 8 9 4 3 5 3 4 4 3 3 5 7 10 11 12 13 12 9 9 11
19 16 15 14 16 17 15 12 9 10 7 8 4 6 5 10 14 19 16 13 14 12 12 12 10 8 3 3 6 5 5 5 4 5 6 7 9 13 14 11 8 6 3
19 18 15 17 19 14 14 13 10 8 9 7 7 1 9 11 16 16 16 15 16 14 11 11 9 12 8 5 5 6 5 6 8 6 3 8 11 8 11 13 7 3 5
19 18 14 14 18 14 9 10 8 5 8 9 6 4 3 13 15 17 18 17 17 17 12 6 7 11 12 10 10 9 8 8 11 7 2 5 11 12 12 11 9 7 5
17 18 14 12 18 13 13 10 7 5 11 6 10 4 4 7 14 13 18 18 15 15 15 10 11 14 14 12 10 10 13 13 15 12 6 5 8 12 6 7 8 10 9
16 19 14 11 14 12 13 10 5 3 8 4 11 5 7 5 16 14 18 17 14 13 15 16 14 12 12 7 5 2 7 11 13 17 13 8 10 10 10 7 8 9 9
14 15 16 9 11 13 13 10 9 5 4 14 8 12 9 7 4 15 18 15 13 12 12 14 15 11 8 7 9 9 8 8 10 15 17 18 15 12 12 12 11 15 19
12 10 10 11 10 11 10 11 12 10 6 12 4 6 13 7 7 13 14 14 18 11 13 14 14 11 5 7 7 7 6 10 17 18 17 17 16 14 16 18 15 15 10
7 9 10 11 10 9 12 10 8 6 2 8 8 6 11 10 4 9 13 13 16 15 17 15 15 13 12 10 5 8 8 7 10 17 19 18 17 18 18 17 19 17 16
7 7 11 10 10 11 14 11 7 5 6 3 4 7 8 4 3 6 13 14 15 13 14 12 10 14 15 13 11 8 7 9 6 14 19 18 13 13 21 19 18 19 19
9 7 8 8 9 10 13 10 10 8 3 5 6 8 9 2 1 3 6 10 13 14 14 15 16 14 13 14 17 17 14 9 12 14 15 12 12 10 9 16 17 15 13
10 8 10 9 10 5 7 7 5 5 7 8 8 5 5 8 7 5 8 10 11 13 14 17 18 19 19 17 16 16 17 16 10 14 12 15 16 16 15 12 10 13 12
11 8 8 12 10 9 9 8 9 7 6 7 8 8 6 6 8 13 13 14 15 15 16 16 16 16 16 15 19 16 15 13 13 11 15 14 13 16 16 20 17 16 20
16 13 9 9 9 9 10 10 8 8 8 6 7 8 7 8 6 6 9 14 19 20 22 24 23 22 21 18 15 12 18 19 18 16 14 12 15 16 13 14 16 16 13
17 18 14 11 10 8 10 10 10 10 11 13 12 10 8 6 6 6 7 7 9 14 19 21 21 22 18 15 16 16 21 24 24 22 23 24 21 20 21 23 19 16 16
16 17 18 15 16 15 13 13 12 13 13 14 13 13 11 12 10 10 9 9 9 7 10 13 16 17 17 18 17 17 20 21 23 25 23 25 26 25 28 26 25 28 27
Wind_Direction
320 324 323 329 320 329 329 318 314 304 275 264 252 251 256 253 246 256 245 268 276 263 286 312 330 326 326 324 324 291 278 277 279 298 290 249 224 193 202 200 189 212 201
311 319 323 324 319 322 326 324 324 308 277 255 262 256 246 247 241 248 244 254 264 258 293 304 328 328 327 324 333 333 306 290 271 276 245 212 180 174 177 190 185 184 202
315 317 328 317 323 324 329 330 328 320 294 255 258 244 245 242 234 223 233 249 259 253 283 328 351 350 339 316 317 335 343 331 275 252 198 170 164 165 144 154 160 155 132
328 333 326 322 327 332 336 334 327 325 291 257 248 242 246 228 243 211 227 235 233 247 255 268 351 8 339 348 347 26 61 7 39 52 185 164 156 160 149 145 139 137 134
336 344 341 333 338 333 333 330 330 328 280 245 245 254 237 220 242 216 202 221 240 216 217 215 337 14 2 11 48 106 84 42 59 124 154 152 138 151 161 158 145 139 134
336 333 338 350 344 340 335 336 333 340 15 284 270 255 219 212 227 196 214 209 231 210 229 232 340 45 38 53 85 76 70 51 66 108 125 137 142 156 147 146 144 143 139
342 334 330 345 346 339 341 342 330 337 329 325 286 252 224 216 216 202 202 211 241 216 216 186 171 82 102 58 34 23 12 62 88 91 112 120 132 137 144 147 148 145 142
338 337 345 337 343 339 343 343 341 327 330 282 267 232 221 210 203 200 197 210 220 210 208 192 179 83 89 45 107 30 65 81 104 114 120 121 132 129 124 130 136 134 136
349 345 350 349 345 339 346 348 343 328 316 279 242 234 234 209 200 192 199 207 210 208 208 197 178 196 124 87 125 101 87 80 111 122 128 122 134 145 139 149 157 159 154
351 347 339 352 352 347 341 347 349 334 329 309 269 257 223 217 197 192 205 210 208 197 187 196 187 189 259 234 216 149 114 96 112 126 141 148 159 157 154 158 168 179 186
3 1 7 359 344 337 334 343 352 0 340 323 304 233 237 214 193 186 191 198 193 186 192 189 194 205 254 207 210 179 165 118 89 127 162 164 160 164 169 176 183 197 208
349 348 356 357 349 343 327 327 346 347 1 358 326 263 246 194 185 181 189 196 195 197 185 189 214 215 228 188 192 193 202 223 266 196 173 167 185 194 189 185 189 200 241
349 344 339 341 344 342 347 338 350 360 5 358 356 7 239 192 196 189 195 202 194 198 194 206 212 212 196 221 204 198 202 214 193 183 212 171 148 145 190 193 208 221 229
348 348 343 352 358 355 345 335 355 331 349 357 359 353 183 190 196 204 198 198 193 202 214 211 224 194 194 222 224 227 212 201 202 212 193 214 166 172 180 190 209 224 240
347 349 341 343 358 353 3 345 3 358 342 352 9 12 20 138 185 184 188 188 189 196 209 193 192 191 206 230 248 243 221 210 211 217 204 182 173 180 162 189 219 229 220
355 351 348 338 354 347 350 15 359 17 309 63 33 35 21 78 191 175 176 183 185 191 205 211 208 218 229 237 233 211 222 209 209 211 217 201 187 209 223 228 233 222 195
336 348 349 2 4 358 0 7 22 18 2 17 33 40 26 129 212 167 180 180 185 195 200 207 212 213 234 258 265 265 266 240 206 192 206 218 228 228 221 235 253 263 253
339 9 12 5 357 4 9 338 324 14 34 4 53 45 28 54 184 188 195 202 205 212 217 213 207 207 264 299 264 253 281 278 212 217 213 212 217 219 231 238 244 253 271
343 343 343 348 351 346 343 352 310 281 343 47 57 19 17 19 36 203 200 201 198 203 207 213 215 227 251 277 295 261 227 247 217 216 217 222 226 234 236 246 248 252 252
324 337 354 333 7 359 358 358 331 254 251 286 342 342 351 9 19 208 210 210 206 205 204 207 225 246 253 247 250 267 247 223 245 212 214 223 240 265 253 246 250 255 257
324 318 316 322 332 353 353 350 359 6 333 254 278 294 299 289 23 173 204 224 226 225 223 227 234 242 244 242 247 259 270 248 231 220 229 236 266 282 279 245 244 262 260
330 298 297 297 316 318 321 335 345 352 352 350 341 319 273 245 231 230 188 186 207 229 236 239 242 250 250 253 256 253 252 253 240 241 236 242 241 250 263 270 268 251 252
325 327 313 297 289 285 289 287 300 314 304 303 321 334 329 311 266 247 237 225 221 228 235 245 244 251 250 255 253 240 227 233 231 241 249 249 242 249 258 258 261 272 258
299 316 304 319 279 270 277 281 283 298 296 317 316 312 311 331 317 286 258 249 243 235 232 237 243 250 254 248 231 243 239 251 253 254 245 248 254 248 244 259 262 257 251
296 301 301 281 292 260 261 270 284 289 280 284 282 298 293 294 297 292 284 279 268 250 243 243 242 239 243 243 245 231 223 231 244 249 250 251 250 261 263 255 258 255 243
296 299 296 282 265 268 263 264 271 280 275 272 270 267 272 284 275 279 269 273 260 262 255 243 230 223 235 247 246 246 252 252 250 251 253 250 254 259 257 253 252 260 266